IBE0154 SKBO-LEMD

Flight info

Callsign IBE0154
Flight time N/A
Altitude 37000
Route OSUSU4R AKROB DCT MAVDA DCT KIKAS UP533 IMBAT UP671 MIQ UN669 ELJEZ/M085F390 DCT 22N050W 26N040W 3030N03000W/M085F410 35N020W DCT LUTAK/N0487F400 DCT TOFEF DCT OGERO Z409 TLD TLD3C
Aircraft A359/H-SDE2E3GHIJ3J4J5LM1ORWXY/LB1D1

Departure

Time N/A
Airport El Dorado International Airport (SKBO)

Arrival

Time 2026-05-04 15:52
Airport Adolfo Suárez Madrid–Barajas Airport (LEMD)
Time Latitude Longitude Altitude Speed Heading
2026-05-04 15:12 39.49737 -7.47598 41005 ft 537 kts 68°
2026-05-04 15:13 39.52353 -7.38538 40998 ft 537 kts 68°
2026-05-04 15:13 39.54963 -7.29468 40994 ft 537 kts 68°
2026-05-04 15:14 39.57561 -7.20391 40991 ft 537 kts 69°
2026-05-04 15:14 39.60154 -7.11303 40981 ft 537 kts 69°
2026-05-04 15:15 39.62738 -7.02216 40980 ft 537 kts 69°
2026-05-04 15:15 39.65313 -6.93131 40975 ft 537 kts 69°
2026-05-04 15:16 39.69150 -6.79536 40971 ft 537 kts 69°
2026-05-04 15:17 39.72305 -6.68304 40961 ft 538 kts 69°
2026-05-04 15:17 39.75917 -6.55382 40958 ft 538 kts 69°
2026-05-04 15:18 39.78461 -6.46243 40949 ft 538 kts 69°
2026-05-04 15:19 39.80923 -6.32032 40956 ft 539 kts 83°
2026-05-04 15:19 39.82231 -6.17492 40955 ft 539 kts 84°
2026-05-04 15:20 39.83055 -6.07797 40947 ft 540 kts 84°
2026-05-04 15:20 39.83890 -5.98093 40947 ft 540 kts 84°
2026-05-04 15:21 39.84727 -5.88390 40948 ft 540 kts 84°
2026-05-04 15:22 39.85969 -5.73835 40951 ft 539 kts 84°
2026-05-04 15:22 39.87193 -5.59263 40947 ft 540 kts 84°
2026-05-04 15:23 39.87996 -5.49550 40947 ft 540 kts 84°
2026-05-04 15:23 39.88794 -5.39824 40939 ft 540 kts 84°
2026-05-04 15:24 39.90362 -5.20452 40761 ft 540 kts 85°
2026-05-04 15:25 39.90751 -5.15580 40519 ft 540 kts 85°
2026-05-04 15:25 39.91137 -5.10718 40287 ft 541 kts 85°
2026-05-04 15:25 39.91522 -5.05833 40053 ft 542 kts 85°
2026-05-04 15:26 39.92283 -4.96111 39101 ft 539 kts 85°
2026-05-04 15:26 39.92660 -4.91243 38442 ft 541 kts 85°
2026-05-04 15:26 39.93411 -4.81491 36992 ft 541 kts 85°
2026-05-04 15:27 39.93783 -4.76622 36294 ft 540 kts 85°
2026-05-04 15:27 39.94521 -4.66864 34841 ft 542 kts 85°
2026-05-04 15:28 39.95257 -4.57053 33101 ft 546 kts 85°
2026-05-04 15:28 39.95620 -4.52131 32249 ft 546 kts 86°
2026-05-04 15:28 39.96369 -4.42276 30446 ft 548 kts 83°
2026-05-04 15:29 39.97308 -4.37474 29423 ft 549 kts 68°
2026-05-04 15:30 40.07546 -4.26050 26833 ft 469 kts
2026-05-04 15:30 40.16673 -4.28150 25197 ft 444 kts 345°
2026-05-04 15:31 40.22874 -4.27896 24047 ft 449 kts
2026-05-04 15:31 40.25955 -4.27288 23463 ft 446 kts
2026-05-04 15:32 40.35009 -4.25344 21686 ft 432 kts
2026-05-04 15:32 40.40902 -4.25026 20517 ft 420 kts 354°
2026-05-04 15:33 40.46663 -4.25212 19833 ft 400 kts 354°
2026-05-04 15:34 40.54571 -4.25451 19437 ft 360 kts 353°
2026-05-04 15:34 40.57035 -4.25524 19272 ft 349 kts 353°
2026-05-04 15:34 40.61706 -4.25660 18966 ft 317 kts 353°
2026-05-04 15:35 40.65853 -4.25780 18703 ft 289 kts 352°
2026-05-04 15:35 40.67839 -4.25843 18570 ft 282 kts 352°
2026-05-04 15:35 40.69777 -4.25903 18448 ft 275 kts 352°
2026-05-04 15:36 40.73579 -4.25041 17830 ft 288 kts 27°
2026-05-04 15:36 40.75044 -4.23276 17552 ft 293 kts 50°
2026-05-04 15:36 40.76235 -4.21093 17244 ft 293 kts 53°
2026-05-04 15:37 40.77395 -4.18844 16945 ft 292 kts 53°
2026-05-04 15:37 40.78524 -4.16663 16653 ft 292 kts 53°
2026-05-04 15:37 40.79676 -4.14458 16351 ft 292 kts 53°
2026-05-04 15:37 40.80824 -4.12265 16066 ft 290 kts 53°
2026-05-04 15:38 40.81974 -4.10076 15770 ft 291 kts 53°
2026-05-04 15:38 40.83133 -4.07871 15478 ft 291 kts 53°
2026-05-04 15:38 40.84283 -4.05682 15205 ft 290 kts 53°
2026-05-04 15:38 40.85433 -4.03497 14896 ft 289 kts 54°
2026-05-04 15:39 40.86577 -4.01318 14611 ft 289 kts 54°
2026-05-04 15:39 40.87721 -3.99138 14319 ft 288 kts 54°
2026-05-04 15:39 40.90004 -3.94783 13732 ft 288 kts 54°
2026-05-04 15:40 40.91135 -3.92624 13428 ft 284 kts 54°
2026-05-04 15:40 40.92251 -3.90490 13141 ft 281 kts 54°
2026-05-04 15:40 40.93360 -3.88369 12855 ft 278 kts 54°
2026-05-04 15:40 40.94452 -3.86282 12623 ft 275 kts 54°
2026-05-04 15:41 40.95534 -3.84212 12361 ft 272 kts 54°
2026-05-04 15:41 40.96607 -3.82159 12112 ft 270 kts 54°
2026-05-04 15:41 40.97537 -3.80024 11857 ft 267 kts 69°
2026-05-04 15:41 40.97815 -3.77641 11636 ft 262 kts 92°
2026-05-04 15:42 40.97719 -3.75246 11379 ft 259 kts 95°
2026-05-04 15:42 40.97581 -3.72873 11133 ft 258 kts 96°
2026-05-04 15:42 40.97447 -3.70519 10894 ft 255 kts 95°
2026-05-04 15:42 40.97318 -3.68192 10652 ft 253 kts 95°
2026-05-04 15:43 40.97006 -3.65866 10528 ft 264 kts 108°
2026-05-04 15:43 40.96447 -3.63550 10462 ft 260 kts 110°
2026-05-04 15:43 40.95870 -3.61335 10194 ft 252 kts 111°
2026-05-04 15:43 40.95093 -3.59309 9757 ft 241 kts 133°
2026-05-04 15:44 40.93789 -3.58020 9495 ft 234 kts 162°
2026-05-04 15:44 40.92226 -3.57657 9230 ft 227 kts 182°
2026-05-04 15:44 40.90662 -3.57651 8974 ft 227 kts 184°
2026-05-04 15:44 40.89081 -3.57689 8724 ft 227 kts 183°
2026-05-04 15:45 40.87528 -3.57696 8662 ft 226 kts 184°
2026-05-04 15:45 40.85949 -3.57682 8579 ft 226 kts 183°
2026-05-04 15:45 40.84394 -3.57666 8366 ft 224 kts 184°
2026-05-04 15:45 40.82817 -3.57655 8105 ft 223 kts 184°
2026-05-04 15:46 40.81261 -3.57648 7760 ft 223 kts 184°
2026-05-04 15:46 40.79729 -3.57639 7416 ft 223 kts 184°
2026-05-04 15:46 40.78178 -3.57631 7071 ft 223 kts 184°
2026-05-04 15:46 40.76631 -3.57623 6748 ft 222 kts 183°
2026-05-04 15:47 40.75083 -3.57607 6468 ft 222 kts 183°
2026-05-04 15:47 40.73542 -3.57581 6250 ft 222 kts 182°
2026-05-04 15:47 40.72013 -3.57570 5990 ft 217 kts 185°
2026-05-04 15:47 40.70526 -3.57594 5769 ft 210 kts 184°
2026-05-04 15:48 40.69087 -3.57617 5536 ft 204 kts 184°
2026-05-04 15:48 40.67685 -3.57617 5283 ft 200 kts 184°
2026-05-04 15:48 40.64924 -3.57577 4729 ft 196 kts 182°
2026-05-04 15:49 40.63585 -3.57546 4391 ft 188 kts 183°
2026-05-04 15:49 40.62304 -3.57506 4099 ft 180 kts 183°
2026-05-04 15:49 40.61075 -3.57482 3779 ft 172 kts 184°
2026-05-04 15:49 40.59910 -3.57470 3530 ft 162 kts 185°
2026-05-04 15:50 40.58815 -3.57486 3314 ft 152 kts 187°
2026-05-04 15:50 40.57789 -3.57518 3088 ft 144 kts 187°
2026-05-04 15:50 40.56807 -3.57508 2905 ft 140 kts 184°
2026-05-04 15:50 40.55825 -3.57501 2729 ft 144 kts 186°
2026-05-04 15:51 40.54820 -3.57497 2475 ft 143 kts 184°
2026-05-04 15:51 40.53812 -3.57485 2311 ft 146 kts 183°
2026-05-04 15:51 40.52806 -3.57477 2118 ft 142 kts 182°
2026-05-04 15:51 40.51835 -3.57468 1992 ft 136 kts 184°
2026-05-04 15:52 40.51237 -3.57462 1988 ft 121 kts 185°
2026-05-04 15:52 40.50512 -3.57470 1990 ft 89 kts 179°
2026-05-04 15:52 40.50093 -3.57460 1988 ft 34 kts 171°
2026-05-04 15:52 40.49923 -3.57375 1990 ft 21 kts 148°
2026-05-04 15:53 40.49822 -3.57300 1990 ft 14 kts 150°
2026-05-04 15:53 40.49744 -3.57229 1990 ft 12 kts 122°
2026-05-04 15:53 40.49741 -3.57112 1987 ft 13 kts 89°
2026-05-04 15:53 40.49721 -3.57016 1988 ft 11 kts 142°
2026-05-04 15:54 40.49648 -3.57009 1990 ft 11 kts 180°
2026-05-04 15:54 40.49566 -3.57009 1988 ft 12 kts 180°
2026-05-04 15:54 40.49489 -3.57010 1987 ft 10 kts 180°
2026-05-04 15:54 40.49471 -3.56990 1990 ft 2 kts 98°
2026-05-04 15:55 40.49470 -3.56958 1988 ft 5 kts 91°
2026-05-04 15:55 40.49470 -3.56946 1987 ft 3 kts 91°
2026-05-04 15:55 40.49469 -3.56914 1988 ft 2 kts 90°
2026-05-04 15:55 40.49469 -3.56896 1987 ft 1 kts 90°
2026-05-04 15:56 40.49469 -3.56895 1987 ft 0 kts 91°
2026-05-04 15:56 40.49469 -3.56894 1987 ft 0 kts 91°